Погода в Корче

Албания     40°37′07″N   20°46′38″E
темп.,
°C
ветер,
м/с
пор.,
м/с
влажн.,
%
обл.,
%
осадки,
мм/ч
давл.,
гПа
погр.,
м
18 января, пн
пн1801:00−12в117253 0.0 101821
04:00−13в228028 0.0 101921
07:00−14в228814 0.0 102022
10:00−9всв23861 0.0 1021277
13:00−7всв228526 0.0 1021384
16:00−10всв129371 0.0 102221
19:00−13ююв118936 0.0 102321
22:00−13св01800 0.0 102521
19 января, вт
вт1901:00−13ссз117913 0.0 102521
04:00−12сз117794 0.0 102521
07:00−13ссз117848 0.0 102621
10:00−6с11730 0.0 102777
13:00−4сз22680 0.0 1026205
16:00−6з12750 0.0 102621
19:00−8зюз23680 0.0 102822
22:00−8юз33670 0.0 102827
20 января, ср
ср2001:00−8юз34720 0.0 102830
04:00−8юз34770 0.0 102833
07:00−7юз34862 0.0 102938
10:00−2юз348729 0.0 1028171
13:00−1юз458716 0.0 1027291
16:00−3юз44850 0.0 102672
19:00−4юз449528 0.0 102769
22:00−1юз4597100 0.0 1026204
21 января, чт
чт2101:00−1ююз4797100 0.0 1026260
04:000ююз479678 0.1 1025262
07:000ююз479781 0.1 1025280
10:00+1ююз4710097 0.1 1025300
13:00+2ююз4810098 0.1 1023286
16:00+2ююз48100100 0.0 1023278
19:00+1ююз4698100 0.0 1024211
22:00+1ююз4998100 0.1 1023309
22 января, пт
пт2201:00+1ююз4898100 0.1 1022257
04:00+2ююз4798100 0.6 1020255
07:00+1ю4798100 1.5 1020241
10:00+2ююз49100100 0.2 1019506
13:00+2ю48100100 1.3 1017366
16:00+2ююз3799100 0.6 1015237
19:00+2ю4998100 1.2 1016322
22:00+2ю51098100 0.4 1015465